| time (UTC) | temp F | wind direction | speed MPH | gust MPH | rain 1hr in | rain 24hr in | rain mn in | humidity % | barometer mb |
| 20260506044520 | 69 | 31 | 2.0 | 0.0 | 0.00 | 0.00 | 0.00 | 77 | 1004.4 |
| 20260506043017 | 70 | 303 | 2.0 | 0.0 | 0.00 | 0.00 | 0.00 | 77 | 1004.6 |
| 20260506041515 | 70 | 24 | 1.0 | 0.0 | 0.00 | 0.00 | 0.00 | 75 | 1004.4 |
| 20260506040015 | 71 | 15 | 1.0 | 0.0 | 0.00 | 0.00 | 0.00 | 74 | 1004.4 |
| 20260506034514 | 72 | 24 | 2.0 | 0.0 | 0.00 | 0.00 | 0.00 | 74 | 1003.8 |
| 20260506033014 | 72 | 11 | 1.0 | 0.0 | 0.00 | 0.00 | 0.00 | 73 | 1003.6 |
| 20260506031513 | 73 | 21 | 2.0 | 0.0 | 0.00 | 0.00 | 0.00 | 72 | 1003.5 |
| 20260506030014 | 73 | 319 | 2.0 | 0.0 | 0.00 | 0.00 | 0.00 | 72 | 1003.4 |
| 20260506024511 | 75 | 59 | 1.0 | 0.0 | 0.00 | 0.00 | 0.00 | 71 | 1002.9 |
| 20260506023011 | 76 | 360 | 2.0 | 0.0 | 0.00 | 0.00 | 0.00 | 71 | 1002.4 |
| 20260506021510 | 78 | 180 | 0.0 | 0.0 | 0.00 | 0.00 | 0.00 | 82 | 1001.9 |
| 20260506020010 | 78 | 180 | 1.0 | 0.0 | 0.00 | 0.00 | 0.00 | 82 | 1001.6 |
| 20260506014509 | 78 | 189 | 1.0 | 0.0 | 0.00 | 0.00 | 0.00 | 82 | 1001.6 |
| 20260506013013 | 78 | 187 | 1.0 | 0.0 | 0.00 | 0.00 | 0.00 | 81 | 1001.2 |
| 20260506011509 | 79 | 186 | 1.0 | 0.0 | 0.00 | 0.00 | 0.00 | 81 | 1001.3 |
| 20260506010013 | 79 | 166 | 4.0 | 0.0 | 0.00 | 0.00 | 0.00 | 81 | 1000.6 |
| 20260506004511 | 79 | 128 | 5.0 | 0.0 | 0.00 | 0.00 | 0.00 | 80 | 1000.6 |
| 20260506003008 | 80 | 127 | 5.0 | 0.0 | 0.00 | 0.00 | 0.00 | 80 | 1000.6 |
| 20260506001507 | 80 | 112 | 5.0 | 0.0 | 0.00 | 0.00 | 0.00 | 79 | 1000.5 |
| 20260506000006 | 80 | 135 | 5.0 | 0.0 | 0.00 | 0.00 | 0.00 | 79 | 1000.4 |
| 20260505234506 | 81 | 159 | 5.0 | 0.0 | 0.00 | 0.00 | 0.00 | 78 | 1000.5 |
| 20260505233006 | 81 | 145 | 6.0 | 0.0 | 0.00 | 0.00 | 0.00 | 78 | 1000.3 |
| 20260505231504 | 82 | 121 | 6.0 | 0.0 | 0.00 | 0.00 | 0.00 | 77 | 1000.1 |
| 20260505230010 | 83 | 149 | 5.0 | 0.0 | 0.00 | 0.00 | 0.00 | 75 | 1000.0 |
| 20260505224505 | 84 | 121 | 5.0 | 0.0 | 0.00 | 0.00 | 0.00 | 74 | 1000.0 |
| 20260505223005 | 85 | 169 | 6.0 | 0.0 | 0.00 | 0.00 | 0.00 | 73 | 999.8 |
| 20260505221503 | 85 | 138 | 5.0 | 0.0 | 0.00 | 0.00 | 0.00 | 71 | 999.8 |
| 20260505220002 | 86 | 128 | 4.0 | 0.0 | 0.00 | 0.00 | 0.00 | 71 | 999.8 |
| 20260505214502 | 86 | 190 | 5.0 | 0.0 | 0.00 | 0.00 | 0.00 | 70 | 999.7 |
| 20260505213002 | 86 | 190 | 6.0 | 0.0 | 0.00 | 0.00 | 0.00 | 68 | 1000.0 |
| 20260505211502 | 86 | 194 | 6.0 | 0.0 | 0.00 | 0.00 | 0.00 | 69 | 1000.0 |
| 20260505210000 | 86 | 206 | 6.0 | 0.0 | 0.00 | 0.00 | 0.00 | 68 | 1000.2 |
| 20260505204600 | 86 | 190 | 7.0 | 0.0 | 0.00 | 0.00 | 0.00 | 67 | 1000.3 |
| 20260505203120 | 86 | 225 | 6.0 | 0.0 | 0.00 | 0.00 | 0.00 | 68 | 1000.6 |
| 20260505201602 | 85 | 214 | 6.0 | 0.0 | 0.00 | 0.00 | 0.00 | 72 | 1000.6 |
| 20260505200055 | 84 | 195 | 6.0 | 0.0 | 0.00 | 0.00 | 0.00 | 73 | 1000.7 |
| 20260505194550 | 84 | 181 | 7.0 | 0.0 | 0.00 | 0.00 | 0.00 | 74 | 1000.7 |
| 20260505193050 | 84 | 184 | 6.0 | 0.0 | 0.00 | 0.00 | 0.00 | 71 | 1000.8 |
| 20260505191559 | 83 | 230 | 7.0 | 0.0 | 0.00 | 0.00 | 0.00 | 72 | 1000.9 |
| 20260505190047 | 82 | 236 | 9.0 | 0.0 | 0.00 | 0.00 | 0.00 | 75 | 1001.2 |
| 20260505184541 | 81 | 208 | 9.0 | 0.0 | 0.00 | 0.00 | 0.00 | 77 | 1001.3 |
| 20260505183039 | 81 | 146 | 9.0 | 0.0 | 0.00 | 0.00 | 0.00 | 77 | 1001.7 |
| 20260505181543 | 81 | 173 | 7.0 | 0.0 | 0.00 | 0.00 | 0.00 | 75 | 1001.7 |
| 20260505180038 | 80 | 224 | 7.0 | 0.0 | 0.00 | 0.00 | 0.00 | 77 | 1001.8 |
| 20260505174541 | 79 | 209 | 8.0 | 0.0 | 0.00 | 0.00 | 0.00 | 77 | 1001.8 |
| 20260505173032 | 79 | 197 | 9.0 | 0.0 | 0.00 | 0.00 | 0.00 | 78 | 1001.5 |
| 20260505171532 | 79 | 159 | 7.0 | 0.0 | 0.00 | 0.00 | 0.00 | 80 | 1001.6 |
| 20260505170027 | 77 | 175 | 7.0 | 0.0 | 0.00 | 0.00 | 0.00 | 81 | 1001.7 |
| 20260505164527 | 77 | 190 | 9.0 | 0.0 | 0.00 | 0.00 | 0.00 | 81 | 1001.4 |
| 20260505163030 | 77 | 165 | 10.0 | 0.0 | 0.00 | 0.00 | 0.00 | 82 | 1001.4 |
| 20260505161520 | 76 | 192 | 8.0 | 0.0 | 0.00 | 0.00 | 0.00 | 84 | 1001.8 |
| 20260505153015 | 74 | 173 | 8.0 | 0.0 | 0.00 | 0.00 | 0.00 | 84 | 1001.6 |
| 20260505151518 | 74 | 176 | 8.0 | 0.0 | 0.00 | 0.00 | 0.00 | 85 | 1001.3 |
| 20260505124504 | 70 | 167 | 5.0 | 0.0 | 0.00 | 0.00 | 0.00 | 90 | 1000.7 |
| 20260505123004 | 69 | 179 | 5.0 | 0.0 | 0.00 | 0.00 | 0.00 | 90 | 1000.7 |
| 20260505121507 | 69 | 174 | 5.0 | 0.0 | 0.00 | 0.00 | 0.00 | 90 | 1000.3 |
| 20260505120003 | 69 | 165 | 5.0 | 0.0 | 0.00 | 0.00 | 0.00 | 90 | 1000.3 |
| 20260505114504 | 69 | 141 | 6.0 | 0.0 | 0.00 | 0.00 | 0.00 | 90 | 1000.3 |
| 20260505113007 | 69 | 164 | 7.0 | 0.0 | 0.00 | 0.00 | 0.00 | 90 | 1000.3 |
| 20260505111501 | 69 | 163 | 7.0 | 0.0 | 0.00 | 0.00 | 0.00 | 90 | 1000.2 |
| 20260505101558 | 69 | 179 | 7.0 | 0.0 | 0.00 | 0.00 | 0.00 | 89 | 1000.3 |
| 20260505100058 | 70 | 173 | 7.0 | 0.0 | 0.00 | 0.00 | 0.00 | 89 | 1000.2 |
| 20260505094554 | 70 | 159 | 7.0 | 0.0 | 0.00 | 0.00 | 0.00 | 88 | 1000.4 |
| 20260505093050 | 70 | 202 | 7.0 | 0.0 | 0.00 | 0.00 | 0.00 | 88 | 1000.6 |
| 20260505091548 | 70 | 175 | 8.0 | 0.0 | 0.00 | 0.00 | 0.00 | 89 | 1000.5 |
| 20260505090057 | 70 | 180 | 7.0 | 0.0 | 0.00 | 0.00 | 0.00 | 89 | 1000.6 |
| 20260505084550 | 69 | 142 | 7.0 | 0.0 | 0.00 | 0.00 | 0.00 | 89 | 1000.6 |
| 20260505083045 | 69 | 195 | 7.0 | 0.0 | 0.00 | 0.00 | 0.00 | 89 | 1000.5 |
| 20260505081545 | 69 | 169 | 6.0 | 0.0 | 0.00 | 0.00 | 0.00 | 89 | 1000.8 |
| 20260505080042 | 69 | 185 | 6.0 | 0.0 | 0.00 | 0.00 | 0.00 | 89 | 1001.2 |
| 20260505074538 | 69 | 132 | 7.0 | 0.0 | 0.00 | 0.00 | 0.00 | 88 | 1001.2 |
| 20260505073039 | 69 | 146 | 6.0 | 0.0 | 0.00 | 0.00 | 0.00 | 88 | 1001.5 |
| 20260505071533 | 70 | 174 | 6.0 | 0.0 | 0.00 | 0.00 | 0.00 | 87 | 1001.9 |
| 20260505070032 | 70 | 151 | 6.0 | 0.0 | 0.00 | 0.00 | 0.00 | 86 | 1002.0 |
| 20260505064530 | 71 | 132 | 6.0 | 0.0 | 0.00 | 0.00 | 0.00 | 86 | 1002.3 |
| 20260505063028 | 71 | 118 | 6.0 | 0.0 | 0.00 | 0.00 | 0.00 | 85 | 1002.4 |
| 20260505061527 | 71 | 184 | 7.0 | 0.0 | 0.00 | 0.00 | 0.00 | 84 | 1002.5 |
| 20260505060031 | 71 | 147 | 6.0 | 0.0 | 0.00 | 0.00 | 0.00 | 83 | 1002.4 |